| time (UTC) | temp F | wind direction | speed MPH | gust MPH | rain 1hr in | rain 24hr in | rain mn in | humidity % | barometer mb |
| 20260904101556 | 69 | 221 | 1.0 | 4.0 | 0.00 | 0.02 | 0.01 | 90 | 1017.4 |
| 20260904100056 | 69 | 250 | 2.0 | 4.0 | 0.00 | 0.02 | 0.01 | 90 | 1017.4 |
| 20260904094553 | 69 | 249 | 0.0 | 4.0 | 0.00 | 0.03 | 0.01 | 90 | 1017.3 |
| 20260904093100 | 69 | 249 | 1.0 | 4.0 | 0.00 | 0.03 | 0.01 | 90 | 1017.2 |
| 20260904091553 | 70 | 140 | 1.0 | 3.0 | 0.00 | 0.03 | 0.01 | 90 | 1017.4 |
| 20260904090051 | 70 | 140 | 0.0 | 4.0 | 0.00 | 0.03 | 0.01 | 90 | 1017.2 |
| 20260904084551 | 70 | 86 | 1.0 | 3.0 | 0.00 | 0.03 | 0.01 | 90 | 1017.1 |
| 20260904083050 | 70 | 71 | 1.0 | 3.0 | 0.00 | 0.03 | 0.01 | 90 | 1017.0 |
| 20260904081552 | 69 | 71 | 0.0 | 4.0 | 0.00 | 0.03 | 0.01 | 90 | 1016.8 |
| 20260904080048 | 70 | 70 | 1.0 | 3.0 | 0.01 | 0.03 | 0.01 | 90 | 1016.5 |
| 20260904074548 | 70 | 70 | 0.0 | 2.0 | 0.01 | 0.03 | 0.01 | 90 | 1016.4 |
| 20260904073055 | 70 | 70 | 0.0 | 3.0 | 0.01 | 0.03 | 0.01 | 90 | 1016.1 |
| 20260904071547 | 70 | 70 | 0.0 | 2.0 | 0.01 | 0.03 | 0.01 | 90 | 1016.2 |
| 20260904070045 | 70 | 70 | 1.0 | 3.0 | 0.00 | 0.02 | 0.00 | 90 | 1016.3 |
| 20260904064544 | 71 | 70 | 0.0 | 2.0 | 0.00 | 0.02 | 0.00 | 90 | 1016.3 |
| 20260904063045 | 71 | 70 | 1.0 | 2.0 | 0.00 | 0.02 | 0.00 | 90 | 1016.2 |
| 20260904061541 | 71 | 70 | 0.0 | 1.0 | 0.00 | 0.02 | 0.00 | 90 | 1016.2 |
| 20260904060040 | 71 | 70 | 0.0 | 2.0 | 0.00 | 0.02 | 0.00 | 90 | 1016.4 |
| 20260904054540 | 71 | 70 | 0.0 | 3.0 | 0.00 | 0.02 | 0.00 | 90 | 1016.4 |
| 20260904053038 | 72 | 70 | 1.0 | 3.0 | 0.00 | 0.02 | 0.00 | 90 | 1016.5 |
| 20260904051538 | 72 | 70 | 1.0 | 3.0 | 0.00 | 0.02 | 0.00 | 90 | 1016.7 |
| 20260904050035 | 72 | 70 | 1.0 | 3.0 | 0.00 | 0.02 | 0.00 | 90 | 1016.7 |
| 20260904044531 | 72 | 70 | 0.0 | 2.0 | 0.00 | 0.02 | 0.00 | 90 | 1016.9 |
| 20260904043027 | 72 | 70 | 1.0 | 3.0 | 0.00 | 0.02 | 0.00 | 90 | 1016.9 |
| 20260904041523 | 73 | 70 | 0.0 | 8.0 | 0.00 | 0.02 | 0.00 | 89 | 1016.6 |
| 20260904040018 | 73 | 238 | 3.0 | 5.0 | 0.00 | 0.02 | 0.00 | 89 | 1017.3 |
| 20260904034522 | 73 | 279 | 2.0 | 4.0 | 0.00 | 0.02 | 0.02 | 88 | 1017.1 |
| 20260904033029 | 74 | 280 | 0.0 | 1.0 | 0.00 | 0.02 | 0.02 | 88 | 1016.3 |
| 20260904031517 | 74 | 280 | 3.0 | 4.0 | 0.00 | 0.02 | 0.02 | 87 | 1016.5 |
| 20260904030016 | 74 | 219 | 1.0 | 3.0 | 0.00 | 0.02 | 0.02 | 86 | 1016.5 |
| 20260904024517 | 74 | 219 | 0.0 | 1.0 | 0.00 | 0.02 | 0.02 | 86 | 1016.5 |
| 20260904023014 | 74 | 219 | 0.0 | 2.0 | 0.00 | 0.02 | 0.02 | 86 | 1016.3 |
| 20260904021514 | 75 | 219 | 0.0 | 2.0 | 0.00 | 0.02 | 0.02 | 86 | 1016.5 |
| 20260904020014 | 75 | 219 | 0.0 | 2.0 | 0.00 | 0.02 | 0.02 | 86 | 1017.0 |
| 20260904014514 | 75 | 219 | 0.0 | 2.0 | 0.00 | 0.02 | 0.02 | 85 | 1017.0 |
| 20260904013018 | 75 | 219 | 1.0 | 3.0 | 0.00 | 0.02 | 0.02 | 85 | 1016.9 |
| 20260904011515 | 75 | 219 | 1.0 | 3.0 | 0.00 | 0.02 | 0.02 | 85 | 1016.9 |
| 20260904010012 | 75 | 219 | 2.0 | 5.0 | 0.00 | 0.02 | 0.02 | 85 | 1017.2 |
| 20260904004512 | 75 | 229 | 2.0 | 6.0 | 0.00 | 0.02 | 0.02 | 85 | 1017.1 |
| 20260904003012 | 76 | 219 | 3.0 | 5.0 | 0.00 | 0.02 | 0.02 | 84 | 1016.6 |
| 20260904001510 | 76 | 202 | 2.0 | 4.0 | 0.00 | 0.02 | 0.02 | 83 | 1016.7 |
| 20260904000011 | 77 | 202 | 2.0 | 3.0 | 0.00 | 0.02 | 0.02 | 81 | 1016.6 |
| 20260903234510 | 77 | 202 | 0.0 | 1.0 | 0.00 | 0.02 | 0.02 | 81 | 1016.6 |
| 20260903233009 | 78 | 202 | 1.0 | 4.0 | 0.00 | 0.02 | 0.02 | 81 | 1016.7 |
| 20260903231510 | 79 | 201 | 1.0 | 3.0 | 0.00 | 0.02 | 0.02 | 78 | 1016.7 |
| 20260903230013 | 80 | 201 | 1.0 | 3.0 | 0.00 | 0.02 | 0.02 | 75 | 1016.9 |
| 20260903224508 | 81 | 265 | 1.0 | 2.0 | 0.00 | 0.03 | 0.02 | 75 | 1016.5 |
| 20260903223008 | 82 | 265 | 0.0 | 3.0 | 0.00 | 0.03 | 0.02 | 73 | 1016.4 |
| 20260903221507 | 82 | 273 | 1.0 | 4.0 | 0.00 | 0.03 | 0.02 | 72 | 1016.4 |
| 20260903220006 | 82 | 298 | 1.0 | 5.0 | 0.00 | 0.03 | 0.02 | 69 | 1016.1 |
| 20260903214515 | 83 | 287 | 1.0 | 6.0 | 0.00 | 0.03 | 0.02 | 68 | 1016.2 |
| 20260903213006 | 83 | 329 | 0.0 | 4.0 | 0.01 | 0.03 | 0.02 | 68 | 1016.3 |
| 20260903211503 | 84 | 309 | 0.0 | 3.0 | 0.01 | 0.03 | 0.02 | 67 | 1016.4 |
| 20260903210002 | 84 | 307 | 0.0 | 5.0 | 0.01 | 0.03 | 0.02 | 67 | 1016.4 |
| 20260903204604 | 83 | 318 | 0.0 | 2.0 | 0.01 | 0.03 | 0.02 | 69 | 1016.6 |
| 20260903203059 | 83 | 265 | 0.0 | 8.0 | 0.00 | 0.02 | 0.01 | 69 | 1016.7 |
| 20260903201558 | 82 | 275 | 2.0 | 11.0 | 0.00 | 0.02 | 0.01 | 69 | 1016.9 |
| 20260903200058 | 82 | 271 | 2.0 | 9.0 | 0.00 | 0.02 | 0.01 | 70 | 1017.1 |
| 20260903194604 | 83 | 268 | 0.0 | 4.0 | 0.00 | 0.02 | 0.01 | 69 | 1016.9 |
| 20260903193100 | 82 | 317 | 0.0 | 2.0 | 0.00 | 0.02 | 0.01 | 69 | 1016.9 |
| 20260903191552 | 82 | 279 | 0.0 | 2.0 | 0.00 | 0.02 | 0.01 | 69 | 1017.1 |
| 20260903190052 | 82 | 284 | 0.0 | 5.0 | 0.00 | 0.02 | 0.01 | 71 | 1017.3 |
| 20260903184548 | 80 | 321 | 4.0 | 11.0 | 0.00 | 0.02 | 0.01 | 72 | 1017.7 |
| 20260903183047 | 81 | 289 | 2.0 | 8.0 | 0.00 | 0.02 | 0.01 | 72 | 1017.7 |
| 20260903181552 | 80 | 260 | 1.0 | 7.0 | 0.00 | 0.02 | 0.01 | 72 | 1017.7 |
| 20260903180057 | 80 | 255 | 0.0 | 8.0 | 0.00 | 0.02 | 0.01 | 72 | 1017.8 |
| 20260903174542 | 80 | 299 | 0.0 | 10.0 | 0.00 | 0.02 | 0.01 | 73 | 1017.9 |
| 20260903173040 | 79 | 252 | 2.0 | 8.0 | 0.00 | 0.02 | 0.01 | 73 | 1017.9 |
| 20260903171539 | 80 | 258 | 1.0 | 5.0 | 0.00 | 0.02 | 0.01 | 73 | 1018.1 |
| 20260903170107 | 79 | 278 | 1.0 | 4.0 | 0.00 | 0.02 | 0.01 | 75 | 1018.2 |
| 20260903164537 | 78 | 240 | 1.0 | 5.0 | 0.00 | 0.02 | 0.01 | 76 | 1018.2 |
| 20260903163039 | 78 | 360 | 2.0 | 9.0 | 0.00 | 0.02 | 0.01 | 74 | 1018.3 |
| 20260903161532 | 77 | 298 | 0.0 | 4.0 | 0.00 | 0.02 | 0.01 | 76 | 1018.6 |
| 20260903160040 | 77 | 261 | 0.0 | 3.0 | 0.00 | 0.02 | 0.01 | 76 | 1018.6 |
| 20260903154529 | 77 | 277 | 0.0 | 3.0 | 0.00 | 0.02 | 0.01 | 79 | 1018.8 |
| 20260903153027 | 76 | 225 | 0.0 | 3.0 | 0.00 | 0.02 | 0.01 | 80 | 1019.2 |
| 20260903151524 | 74 | 264 | 1.0 | 4.0 | 0.00 | 0.02 | 0.01 | 81 | 1019.1 |
| 20260903150022 | 73 | 261 | 0.0 | 4.0 | 0.00 | 0.02 | 0.01 | 83 | 1019.0 |
| 20260903144521 | 73 | 216 | 4.0 | 6.0 | 0.00 | 0.02 | 0.01 | 83 | 1019.0 |
| 20260903143017 | 72 | 224 | 3.0 | 5.0 | 0.00 | 0.02 | 0.01 | 83 | 1019.1 |
| 20260903141522 | 72 | 229 | 2.0 | 6.0 | 0.00 | 0.02 | 0.01 | 84 | 1019.1 |
| 20260903140015 | 72 | 242 | 3.0 | 9.0 | 0.00 | 0.02 | 0.01 | 84 | 1019.1 |
| 20260903134515 | 72 | 252 | 5.0 | 10.0 | 0.00 | 0.02 | 0.01 | 84 | 1019.0 |
| 20260903133014 | 72 | 248 | 5.0 | 9.0 | 0.00 | 0.02 | 0.01 | 87 | 1018.9 |
| 20260903131510 | 71 | 237 | 3.0 | 7.0 | 0.00 | 0.02 | 0.01 | 89 | 1018.8 |
| 20260903130007 | 70 | 235 | 1.0 | 3.0 | 0.00 | 0.02 | 0.01 | 90 | 1019.0 |
| 20260903124504 | 70 | 235 | 2.0 | 3.0 | 0.00 | 0.03 | 0.01 | 91 | 1019.0 |
| 20260903123001 | 69 | 196 | 1.0 | 4.0 | 0.00 | 0.03 | 0.01 | 91 | 1019.1 |
| 20260903121602 | 69 | 187 | 0.0 | 3.0 | 0.00 | 0.03 | 0.01 | 91 | 1018.8 |
| 20260903120100 | 68 | 186 | 0.0 | 1.0 | 0.00 | 0.03 | 0.01 | 91 | 1018.6 |
| 20260903114609 | 67 | 186 | 0.0 | 0.0 | 0.00 | 0.03 | 0.01 | 91 | 1018.6 |
| 20260903113107 | 67 | 186 | 0.0 | 1.0 | 0.00 | 0.03 | 0.01 | 91 | 1018.6 |
| 20260903111559 | 66 | 186 | 1.0 | 3.0 | 0.00 | 0.03 | 0.01 | 91 | 1018.2 |
| 20260903110105 | 67 | 186 | 1.0 | 3.0 | 0.00 | 0.03 | 0.01 | 91 | 1018.2 |
| 20260903104603 | 67 | 194 | 0.0 | 2.0 | 0.01 | 0.03 | 0.01 | 91 | 1018.2 |
| 20260903103057 | 67 | 194 | 1.0 | 4.0 | 0.01 | 0.03 | 0.01 | 91 | 1018.1 |